ORB039 URSS-UWOO

Flight info

Callsign ORB039
Flight time N/A
Altitude 40000
Route ADNET1S ADNET W79 NZ/K0895F390 A961 KULED/K0902F400 G901 OTKEN/K0911F410 G901 RODUN R807 UROBO T692 SOMUG L993 PODUT M162 PIMAM PIMAM5B
Aircraft B772/H-SDE2E3FGHIJ5LORVWXY/LB1D1

Departure

Time N/A
Airport Sochi International Airport (URSS)

Arrival

Time 2026-04-30 18:42
Airport Orenburg Central Airport (UWOO)
Time Latitude Longitude Altitude Speed Heading
2026-04-30 17:39 50.53339 46.58703 41103 ft 543 kts 59°
2026-04-30 17:42 50.71851 47.10533 41095 ft 544 kts 61°
2026-04-30 17:43 50.81021 47.36708 41092 ft 545 kts 62°
2026-04-30 17:44 50.91949 47.68285 41091 ft 545 kts 62°
2026-04-30 17:47 51.08127 48.15768 41082 ft 541 kts 63°
2026-04-30 17:48 51.20508 48.52724 41077 ft 540 kts 63°
2026-04-30 17:50 51.34472 48.95072 41073 ft 540 kts 64°
2026-04-30 17:52 51.44866 49.27072 41075 ft 540 kts 64°
2026-04-30 17:54 51.60287 49.75367 41084 ft 540 kts 65°
2026-04-30 17:56 51.73830 50.18671 41084 ft 542 kts 66°
2026-04-30 17:58 51.83918 50.51425 41083 ft 543 kts 66°
2026-04-30 18:00 51.97344 50.95411 41081 ft 546 kts 65°
2026-04-30 18:01 52.06059 51.22749 41087 ft 547 kts 65°
2026-04-30 18:02 52.16424 51.55875 41096 ft 548 kts 65°
2026-04-30 18:04 52.22826 51.90624 41087 ft 530 kts 98°
2026-04-30 18:06 52.20650 52.37935 40785 ft 506 kts 98°
2026-04-30 18:07 52.19613 52.60845 38440 ft 509 kts 99°
2026-04-30 18:08 52.18805 52.78022 36150 ft 504 kts 99°
2026-04-30 18:09 52.17699 53.00694 32481 ft 502 kts 100°
2026-04-30 18:10 52.16574 53.23021 28968 ft 479 kts 100°
2026-04-30 18:11 52.15479 53.43914 26072 ft 450 kts 100°
2026-04-30 18:11 52.14662 53.58925 23922 ft 438 kts 99°
2026-04-30 18:12 52.13851 53.73530 21697 ft 425 kts 99°
2026-04-30 18:13 52.13316 53.83005 20332 ft 416 kts 98°
2026-04-30 18:13 52.12606 53.95356 18589 ft 408 kts 97°
2026-04-30 18:14 52.11985 54.06002 16953 ft 400 kts 97°
2026-04-30 18:15 52.11194 54.19317 15058 ft 389 kts 96°
2026-04-30 18:15 52.10410 54.32283 13167 ft 380 kts 96°
2026-04-30 18:16 52.09889 54.40757 11950 ft 373 kts 96°
2026-04-30 18:16 52.09460 54.47670 10971 ft 367 kts 95°
2026-04-30 18:17 52.09205 54.51744 10744 ft 354 kts 95°
2026-04-30 18:17 52.08960 54.55653 10587 ft 340 kts 95°
2026-04-30 18:17 52.08493 54.63021 10302 ft 315 kts 96°
2026-04-30 18:18 52.08272 54.66491 10173 ft 303 kts 96°
2026-04-30 18:18 52.07989 54.70907 9935 ft 291 kts 96°
2026-04-30 18:18 52.07848 54.73109 9684 ft 290 kts 95°
2026-04-30 18:18 52.07639 54.76353 9350 ft 287 kts 95°
2026-04-30 18:19 52.07430 54.79557 9016 ft 283 kts 95°
2026-04-30 18:19 52.07223 54.82728 8699 ft 281 kts 95°
2026-04-30 18:19 52.06991 54.85844 8360 ft 273 kts 101°
2026-04-30 18:19 52.06198 54.88602 8044 ft 271 kts 128°
2026-04-30 18:20 52.04906 54.90784 7728 ft 266 kts 134°
2026-04-30 18:20 52.03590 54.92887 7433 ft 265 kts 134°
2026-04-30 18:20 52.02279 54.94987 7124 ft 264 kts 133°
2026-04-30 18:20 52.00988 54.97059 6821 ft 264 kts 133°
2026-04-30 18:21 51.99685 54.99156 6505 ft 264 kts 133°
2026-04-30 18:21 51.98383 55.01255 6183 ft 264 kts 132°
2026-04-30 18:21 51.97080 55.03357 5852 ft 264 kts 132°
2026-04-30 18:21 51.95782 55.05451 5536 ft 263 kts 132°
2026-04-30 18:22 51.94489 55.07539 5212 ft 262 kts 132°
2026-04-30 18:22 51.91910 55.11694 4601 ft 262 kts 132°
2026-04-30 18:22 51.90619 55.13768 4289 ft 260 kts 134°
2026-04-30 18:23 51.89096 55.15282 3958 ft 264 kts 163°
2026-04-30 18:23 51.87273 55.15536 3675 ft 263 kts 180°
2026-04-30 18:23 51.85450 55.15516 3552 ft 258 kts 179°
2026-04-30 18:23 51.83685 55.15525 3422 ft 250 kts 179°
2026-04-30 18:24 51.80672 55.16492 3136 ft 198 kts 132°
2026-04-30 18:24 51.80058 55.18294 3028 ft 177 kts 98°
2026-04-30 18:24 51.79841 55.20240 3046 ft 178 kts 94°
2026-04-30 18:25 51.79717 55.21880 2845 ft 176 kts 93°
2026-04-30 18:25 51.79566 55.25323 2462 ft 167 kts 87°
2026-04-30 18:25 51.79559 55.27123 2270 ft 153 kts 85°
2026-04-30 18:26 51.79562 55.30206 1943 ft 128 kts 85°
2026-04-30 18:26 51.79565 55.31649 1782 ft 128 kts 85°
2026-04-30 18:26 51.79567 55.33081 1618 ft 127 kts 85°
2026-04-30 18:27 51.79572 55.35967 1297 ft 130 kts 86°
2026-04-30 18:27 51.79575 55.37439 1117 ft 132 kts 88°
2026-04-30 18:28 51.79573 55.40390 806 ft 133 kts 88°
2026-04-30 18:28 51.79581 55.41866 620 ft 130 kts 87°
2026-04-30 18:28 51.79601 55.44763 402 ft 114 kts 87°
2026-04-30 18:29 51.79600 55.46032 556 ft 130 kts 90°
2026-04-30 18:29 51.79704 55.51491 2082 ft 184 kts 73°
2026-04-30 18:30 51.79851 55.55819 2281 ft 201 kts 91°
2026-04-30 18:30 51.79704 55.60250 2291 ft 198 kts 85°
2026-04-30 18:31 51.80022 55.62327 2361 ft 190 kts 50°
2026-04-30 18:31 51.82337 55.63456 2990 ft 189 kts 346°
2026-04-30 18:32 51.84104 55.60304 3009 ft 204 kts 294°
2026-04-30 18:32 51.84514 55.58092 3002 ft 207 kts 291°
2026-04-30 18:32 51.85390 55.53074 3023 ft 256 kts 290°
2026-04-30 18:33 51.85872 55.50285 3007 ft 258 kts 289°
2026-04-30 18:33 51.86850 55.44682 3004 ft 259 kts 289°
2026-04-30 18:33 51.87346 55.41880 2998 ft 259 kts 289°
2026-04-30 18:34 51.87843 55.39087 2997 ft 258 kts 289°
2026-04-30 18:34 51.88836 55.33508 3002 ft 258 kts 289°
2026-04-30 18:34 51.89326 55.30713 3001 ft 258 kts 287°
2026-04-30 18:35 51.89603 55.27834 3003 ft 261 kts 277°
2026-04-30 18:35 51.89646 55.24892 3004 ft 262 kts 272°
2026-04-30 18:35 51.89632 55.21949 3005 ft 262 kts 272°
2026-04-30 18:36 51.88253 55.16699 3014 ft 270 kts 218°
2026-04-30 18:36 51.86541 55.15508 3006 ft 270 kts 187°
2026-04-30 18:36 51.83038 55.15480 2970 ft 227 kts 173°
2026-04-30 18:37 51.81666 55.16233 3005 ft 196 kts 144°
2026-04-30 18:37 51.80685 55.17628 2999 ft 181 kts 130°
2026-04-30 18:37 51.79632 55.18692 2928 ft 186 kts 160°
2026-04-30 18:37 51.78634 55.19871 2705 ft 177 kts 117°
2026-04-30 18:38 51.78381 55.21665 2826 ft 161 kts 78°
2026-04-30 18:38 51.78842 55.23214 2887 ft 149 kts 42°
2026-04-30 18:38 51.79469 55.24465 2991 ft 140 kts 54°
2026-04-30 18:38 51.79838 55.25862 2872 ft 134 kts 72°
2026-04-30 18:39 51.79848 55.27344 2617 ft 133 kts 96°
2026-04-30 18:39 51.79694 55.28827 2457 ft 136 kts 91°
2026-04-30 18:39 51.79609 55.30339 2014 ft 131 kts 89°
2026-04-30 18:39 51.79576 55.31752 1804 ft 125 kts 86°
2026-04-30 18:40 51.79559 55.33199 1580 ft 132 kts 86°
2026-04-30 18:40 51.79567 55.34664 1300 ft 129 kts 85°
2026-04-30 18:40 51.79578 55.36117 1113 ft 129 kts 87°
2026-04-30 18:40 51.79572 55.37594 998 ft 133 kts 88°
2026-04-30 18:41 51.79572 55.39065 896 ft 130 kts 88°
2026-04-30 18:41 51.79576 55.40541 762 ft 133 kts 88°
2026-04-30 18:41 51.79578 55.42006 619 ft 130 kts 88°
2026-04-30 18:41 51.79584 55.43441 478 ft 130 kts 88°
2026-04-30 18:42 51.79584 55.44809 401 ft 109 kts 89°
2026-04-30 18:42 51.79580 55.46455 399 ft 56 kts 90°
2026-04-30 18:42 51.79581 55.47038 397 ft 48 kts 90°
2026-04-30 18:45 51.79411 55.45717 381 ft 15 kts 179°
2026-04-30 18:45 51.79334 55.45706 381 ft 10 kts 208°
2026-04-30 18:45 51.79308 55.45606 381 ft 10 kts 262°
2026-04-30 18:46 51.79304 55.45494 381 ft 10 kts 270°
2026-04-30 18:46 51.79304 55.45448 381 ft 0 kts 270°